Вернуться в каталог

CZ-6A DEB

АктивенPO
NORAD 60778·DEBRIS·🇨🇳 China

Запущен Aug 6, 2024 с Taiyuan Satellite Launch Center

Loading…

Ближайшие Пролёты (ближайшие 24 часа)

TLE

СвежийSource: Space-Track

Эпоха: Sep 14, 2026, 06:01 UTC

1 60778U 24140FD  26257.25095622  .00312518  00000-0  64970-2 0  9990
2 60778  88.9888 255.7712 0023370 163.3586 196.8445 15.44231161113106

Отслеживайте CZ-6A DEB в реальном времени с AllMySat

Download on the App Store